Tracking 25710 objects as of 5-Jul-2022
HD Live streaming from Space Station
objects crossing your sky now

FENGYUN 1C DEB

Track FENGYUN 1C DEB now!
10-day predictions


NORAD ID: 30815
Int'l Code: 1999-025AUZ
Perigee: 793.4 km
Apogee: 797.7 km
Inclination: 99.3 °
Period: 100.6 minutes
Semi major axis: 7166 km
RCS: 0.0091 m2 (small)
Launch date: May 10, 1999
Source: People's Republic of China (PRC)
Launch site: Taiyaun Space Center, China (TSC)

Note: This is SATELLITE DEBRIS
aabbcc
Your satellite tracking list
Your tracking list is empty




NASA's NSSDC Master Catalog

Two Line Element Set (TLE):
1 30815U 99025AUZ 22185.52770546  .00002119  00000-0  82425-3 0  9993
2 30815  99.3422 204.8375 0002999 107.0142  45.8492 14.31000147796219
Source of the keplerian elements: AFSPC